CZ-6A DEB

Satellite information

Favourite Embed

Satellite Type and Status

DEBRISIN ORBIT

Key statistics

Satellite CZ-6A DEB at a glance.

Uptime

967

Days in orbit

Revolutions

≈ 14.2

Per day

Orbit

SSO

Sun Synchronous Orbit

Inclination

98.8

Latest

Satellite identification and parameters

Extended collection of information and parameters for CZ-6A DEB.

Object identification

Identified? True

Debris? True

Object name: CZ-6A DEB

International designator: 2022-151ABR

Object number (NORAD): 56249

Object ID (CCSDS): 56249

Country: PEOPLES REPUBLIC OF CHINA (PRC)

Current information (Y/N): Y

RCS size: SMALL

Orbital parameters

Period: 101.13 minutes

Inclination: 98.7825 deg

SMA: 7190.281 km

Apoapsis: 843.845 km

Periapsis: 780.448 km

RAAN: 201.7012 deg

Eccentricy: 0.0044085

Argument of periapsis: 265.8919 deg

Mean anomaly: 93.722 deg

Mean motion: 14.23914546 rev/day

Mean motion (dot): 0.00001251 rev/day2

B* drag term: 0.00055961 1/REarth

Two-line elements (TLE)

Creation date: July 4, 2025, 6:39 p.m.

Reference frame: TEME

Reference center: EARTH

Epoch: July 4, 2025, 12:06 p.m. UTC

TLE line 0: 0 CZ-6A DEB

TLE line 1: 1 56249U 22151ABR 25185.50423302 .00001251 00000-0 55961-3 0 9995

TLE line 2: 2 56249 98.7825 201.7012 0044085 265.8919 93.7220 14.23914546125090

Live tracking on map

Real-time ground track for satellite CZ-6A DEB.

In-orbit conjunctions

A list of the most updated potential collisions computed for object CZ-6A DEB.

Target Orbit TCA Probability of collision Miss distance Type
SL-16 DEB LEO 2025-05-01 10:10:04 0.0001673899 110.0 (m) DEBRIS
METEOR 1-17 DEB LEO 2024-11-14 07:28:17 0.0002347908 817.0 (m) DEBRIS
CZ-6A DEB LEO 2024-10-31 18:31:24 0.0001421224 870.0 (m) DEBRIS

Associated space launch

Chinese satellite reported for atmospheric/ocean/environmental/spatial parameter research purposes, details TBD.

CZ-6A DEB was lifted into orbit during the mission ‘Long March 6A | Yunhai 3’, on board a Long March 6A space rocket.

The launch took place on Nov. 11, 2022, 10:52 p.m. from Launch Complex 9A.

For more information about the launch, click the button.

Launch to space Long March 6A | Yunhai 3
Long March 6A | Yunhai 3

Agency: N/A

Status: Launch Successful

Launch date: Nov. 11, 2022, 10:52 p.m. UTC

Rocket: Long March 6A

Launch pad: Launch Complex 9A

Location: Taiyuan Satellite Launch Center, People's Republic of China

...

Latest news about this satellite

There are no fresh news available about this satellite. Check back as we update our databases every day.


Newsletter sign-up

Weekly statistics, charts and insights to help you stay on top of the space industry.